TimeEET,TemperatureF,Dew PointF,Humidity,Sea Level PressureIn,VisibilityMPH,Wind Direction,Wind SpeedMPH,Gust SpeedMPH,PrecipitationIn,Events,Conditions,WindDirDegrees,DateUTC
12:50 AM,44.6,35.6,71,29.89,6.2,NE,5.8,-,N/A,,Partly Cloudy,40,2013-01-23 22:50:00
1:50 AM,42.8,35.6,76,29.89,6.2,NE,4.6,-,N/A,,Partly Cloudy,40,2013-01-23 23:50:00
2:50 AM,41.0,35.6,81,29.89,6.2,East,6.9,-,N/A,,Partly Cloudy,90,2013-01-24 00:50:00
3:50 AM,41.0,37.4,87,29.89,6.2,NE,5.8,-,N/A,,Partly Cloudy,40,2013-01-24 01:50:00
4:50 AM,41.0,33.8,76,29.86,6.2,NE,6.9,-,N/A,,Scattered Clouds,40,2013-01-24 02:50:00
5:20 AM,41.0,33.8,76,29.86,6.2,NE,6.9,-,N/A,,Scattered Clouds,40,2013-01-24 03:20:00
5:50 AM,41.0,33.8,76,29.83,6.2,NE,6.9,-,N/A,,Scattered Clouds,40,2013-01-24 03:50:00
6:50 AM,41.0,32.0,70,29.83,6.2,East,6.9,-,N/A,,Scattered Clouds,80,2013-01-24 04:50:00
7:20 AM,41.0,32.0,70,29.83,6.2,East,6.9,-,N/A,,Scattered Clouds,80,2013-01-24 05:20:00
7:50 AM,39.2,33.8,81,29.83,6.2,East,5.8,-,N/A,,Mostly Cloudy,90,2013-01-24 05:50:00
8:20 AM,39.2,33.8,81,29.83,6.2,East,5.8,-,N/A,,Mostly Cloudy,80,2013-01-24 06:20:00
8:50 AM,41.0,33.8,76,29.83,6.2,NE,8.1,-,N/A,,Mostly Cloudy,50,2013-01-24 06:50:00
9:20 AM,44.6,35.6,71,29.83,6.2,NE,8.1,-,N/A,,Mostly Cloudy,40,2013-01-24 07:20:00
9:50 AM,50.0,42.8,76,29.80,6.2,NE,8.1,-,N/A,,Mostly Cloudy,40,2013-01-24 07:50:00
10:20 AM,50.0,42.8,76,29.80,6.2,NE,8.1,-,N/A,,Mostly Cloudy,40,2013-01-24 08:20:00
10:50 AM,51.8,42.8,71,29.80,6.2,NE,13.8,-,N/A,,Mostly Cloudy,40,2013-01-24 08:50:00
11:20 AM,51.8,42.8,71,29.77,6.2,NE,13.8,-,N/A,,Mostly Cloudy,40,2013-01-24 09:20:00
11:50 AM,53.6,48.2,82,29.74,6.2,NNE,11.5,-,N/A,,Mostly Cloudy,30,2013-01-24 09:50:00
12:20 PM,53.6,50.0,88,29.74,5.0,NNE,10.4,-,N/A,Rain,Light Rain,30,2013-01-24 10:20:00
12:50 PM,53.6,50.0,88,29.68,6.2,NNE,11.5,-,N/A,,Mostly Cloudy,30,2013-01-24 10:50:00
1:20 PM,53.6,50.0,88,29.68,6.2,NNE,8.1,-,N/A,,Mostly Cloudy,30,2013-01-24 11:20:00
1:50 PM,55.4,51.8,88,29.65,6.2,NE,6.9,-,N/A,,Mostly Cloudy,40,2013-01-24 11:50:00
2:20 PM,55.4,51.8,88,29.65,6.2,SSE,13.8,25.3,N/A,,Mostly Cloudy,160,2013-01-24 12:20:00
2:50 PM,55.4,51.8,88,29.62,6.2,SSE,15.0,26.5,N/A,,Overcast,160,2013-01-24 12:50:00
3:20 PM,55.4,51.8,88,29.59,6.2,SSE,16.1,27.6,N/A,,Overcast,160,2013-01-24 13:20:00
3:50 PM,55.4,53.6,94,29.59,6.2,South,19.6,31.1,N/A,,Overcast,170,2013-01-24 13:50:00
4:20 PM,55.4,53.6,94,29.59,5.0,South,23.0,34.5,N/A,Rain,Light Rain,170,2013-01-24 14:20:00
4:50 PM,57.2,51.8,82,29.56,5.0,South,23.0,34.5,N/A,Rain,Light Rain,180,2013-01-24 14:50:00
5:20 PM,57.2,51.8,82,29.56,3.1,South,17.3,28.8,N/A,Rain,Rain,180,2013-01-24 15:20:00
5:50 PM,51.8,51.8,100,29.56,5.0,South,23.0,36.8,N/A,Rain-Thunderstorm,Light Thunderstorms and Rain,190,2013-01-24 15:50:00
6:20 PM,51.8,51.8,100,29.56,5.0,South,20.7,-,N/A,Rain-Thunderstorm,Light Thunderstorms and Rain,190,2013-01-24 16:20:00
6:50 PM,51.8,50.0,94,29.56,6.2,South,18.4,-,N/A,Rain,Light Rain,190,2013-01-24 16:50:00
7:20 PM,51.8,50.0,94,29.56,6.2,South,17.3,-,N/A,,Overcast,190,2013-01-24 17:20:00
7:50 PM,51.8,50.0,94,29.56,6.2,South,5.8,-,N/A,,Overcast,170,2013-01-24 17:50:00
8:20 PM,51.8,50.0,94,29.53,6.2,SW,10.4,-,N/A,,Overcast,220,2013-01-24 18:20:00
8:50 PM,51.8,48.2,88,29.53,6.2,SW,10.4,-,N/A,,Overcast,220,2013-01-24 18:50:00
9:20 PM,51.8,48.2,88,29.53,6.2,SSW,10.4,-,N/A,,Overcast,210,2013-01-24 19:20:00
9:50 PM,50.0,46.4,87,29.53,6.2,SSW,9.2,-,N/A,,Overcast,210,2013-01-24 19:50:00
10:20 PM,50.0,46.4,87,29.56,6.2,WSW,4.6,-,N/A,,Overcast,240,2013-01-24 20:20:00
10:50 PM,50.0,48.2,94,29.56,6.2,West,4.6,-,N/A,,Mostly Cloudy,280,2013-01-24 20:50:00